Ashland, MO

10:15 AM CDT on August 29, 2016 (GMT -0500)
Columbia Regional

Weather History for KCOU - July, 2013

Change the Weather History Date:

Saturday, July 20, 2013

  Actual Average Record
Temperature  
Mean Temperature 80 °F 78 °F  
Max Temperature 87 °F 88 °F 110 °F (1934)
Min Temperature 72 °F 67 °F 56 °F (1970)
Degree Days  
Heating Degree Days 0 0  
Month to date heating degree days 0 0  
Since 1 June heating degree days 6 11  
Since 1 July heating degree days 0 0  
Cooling Degree Days 15 13  
Month to date cooling degree days 243 246  
Year to date cooling degree days 644 597  
Since 1 June cooling degree days 510 494  
Growing Degree Days 30 (Base 50)    
Moisture  
Dew Point 69 °F    
Average Humidity 73    
Maximum Humidity 84    
Minimum Humidity 62    
Precipitation  
Precipitation 0.05 in 0.13 in 2.21 in (1898)
Month to date precipitation 1.04 2.98  
Year to date precipitation 29.80 24.00  
Snow  
Snow 0.00 in 0.00 in 0.00 in (2015)
Month to date snowfall 0.0 0.0  
Since 1 June snowfall 0.0 0.0  
Since 1 July snowfall 0.0 0.0  
Snow Depth 0.00 in    
Sea Level Pressure  
Sea Level Pressure 29.89 in    
Wind  
Wind Speed 8 mph (WSW)    
Max Wind Speed 21 mph    
Max Gust Speed 25 mph    
Visibility 10 miles    
Events Rain    
T = Trace of Precipitation, MM = Missing Value Source: NWS Daily Summary

Daily Weather History Graph

Daily Weather History Graph

Search for Another Location

Airport or City:

Trip Planner

Search our weather history database for the weather conditions in past years. The results will help you decide how hot, cold, wet, or windy it might be!

Date:

Astronomy

Jul. 20, 2013 Rise Set
Actual Time 6:00 AM CDT 8:29 PM CDT
Civil Twilight 5:29 AM CDT 9:00 PM CDT
Nautical Twilight 4:51 AM CDT 9:38 PM CDT
Astronomical Twilight 4:09 AM CDT 10:20 PM CDT
Moon 6:34 PM CDT (7/20) 3:40 AM CDT (7/20)
Length of Visible Light 15h 31m
Length of Day
14h 29m
Waxing Gibbous, 94% of the Moon is Illuminated
Jul 20
Waxing Gibbous
Jul 22
Full
Jul 29
Last Quarter
Aug 6
New
Aug 14
First Quarter

Hourly Weather History & Observations

Time (CDT) Temp. Heat Index Dew Point Humidity Pressure Visibility Wind Dir Wind Speed Gust Speed Precip Events Conditions
12:54 AM 75.9 °F - 68.0 °F 76% 29.89 in 10.0 mi South 5.8 mph - N/A   Clear
1:54 AM 75.0 °F - 68.0 °F 79% 29.88 in 10.0 mi South 6.9 mph - N/A   Clear
2:54 AM 75.0 °F - 68.0 °F 79% 29.88 in 10.0 mi SSW 6.9 mph - N/A   Scattered Clouds
3:54 AM 73.9 °F - 68.0 °F 82% 29.87 in 10.0 mi SW 8.1 mph - N/A   Mostly Cloudy
4:54 AM 73.0 °F - 66.9 °F 81% 29.86 in 10.0 mi SSW 6.9 mph - N/A   Clear
5:54 AM 73.9 °F - 66.9 °F 79% 29.87 in 10.0 mi WSW 5.8 mph - N/A   Partly Cloudy
6:54 AM 75.0 °F - 68.0 °F 79% 29.87 in 10.0 mi WSW 4.6 mph - N/A   Overcast
7:54 AM 77.0 °F - 69.1 °F 76% 29.88 in 10.0 mi WSW 5.8 mph - N/A   Mostly Cloudy
8:54 AM 79.0 °F - 69.1 °F 72% 29.89 in 10.0 mi West 9.2 mph - N/A   Mostly Cloudy
9:54 AM 81.0 °F 84.4 °F 70.0 °F 69% 29.89 in 10.0 mi West 9.2 mph - N/A   Scattered Clouds
10:54 AM 84.0 °F 89.6 °F 72.0 °F 67% 29.90 in 10.0 mi West 8.1 mph - N/A   Partly Cloudy
11:54 AM 78.1 °F - 68.0 °F 71% 29.93 in 10.0 mi SW 12.7 mph - N/A   Overcast
12:54 PM 73.9 °F - 70.0 °F 87% 29.94 in 6.0 mi South 9.2 mph - 0.02 in Rain Rain
1:54 PM 75.9 °F - 71.1 °F 85% 29.92 in 10.0 mi WSW 10.4 mph - 0.03 in   Clear
2:54 PM 82.0 °F 86.7 °F 72.0 °F 71% 29.89 in 10.0 mi WNW 8.1 mph - 0.00 in   Clear
3:54 PM 84.9 °F 90.7 °F 72.0 °F 65% 29.85 in 10.0 mi NNW 10.4 mph - N/A   Clear
4:54 PM 86.0 °F 93.0 °F 73.0 °F 65% 29.86 in 10.0 mi NNW 6.9 mph - N/A   Clear
5:54 PM 84.0 °F 90.2 °F 73.0 °F 69% 29.85 in 10.0 mi North 5.8 mph - N/A   Clear
6:54 PM 82.9 °F 87.0 °F 70.0 °F 65% 29.85 in 10.0 mi NNE 6.9 mph - N/A   Clear
7:54 PM 81.0 °F 84.1 °F 69.1 °F 67% 29.89 in 10.0 mi NE 8.1 mph - N/A   Clear
8:54 PM 80.1 °F 82.1 °F 66.0 °F 62% 29.89 in 10.0 mi East 8.1 mph - N/A   Clear
9:54 PM 77.0 °F - 66.0 °F 69% 29.90 in 10.0 mi ENE 5.8 mph - N/A   Clear
10:54 PM 77.0 °F - 68.0 °F 74% 29.91 in 10.0 mi SSE 13.8 mph 18.4 mph N/A   Mostly Cloudy
11:54 PM 75.0 °F - 66.9 °F 76% 29.91 in 10.0 mi SSW 8.1 mph - N/A   Clear